Current weather by "City, St" or "zip code"  
 

Current Conditions: Hebron, Hebron Municipal Airport, NE

Fair


66.0 F

Last Updated on Oct 31 2020, 1:55 pm CDT
Humidity: 31%
Wind Speed: N 15.0 G 21.9 mph
Barometer 29.98 in
Dewpoint: 34.7 F
Visibility: 10.00 mi
Precip: --
Heat Index: NA
Wind Chill: NA
Current conditions at:

Hebron, Hebron Municipal Airport, NE (KHJH)

Lat: 40.15222 Lon: 97.58694

Local Radar Image active severe weather and emergency alerts image image weather storm and storm spotter reports image weather observation monitoring service image
Local
Radar
Active
Alerts
Storm Reports Obs
Monitoring

Sign-up For Email & Text Message Weather Alert Notification Services



Advertise Here

Observation History for Hebron, Hebron Municipal Airport, NE


Time Wind
(mph)
Vis
(mi)
Weather Precip (in) Temperature (F) Relative
Humidity
Wind
Chill
(F)
Heat
Index
(F)
Pressure
Air Dwpt altimeter
(in)
sea level
(mb)
Rmks
1:55 pm CDT N 15.0 G 21.9 10.00 Fair -- 66.0 34.7 31% NA NA 29.98 M
12:55 pm CDT NW 12.7 G 21.9 10.00 Fair -- 64.0 38.3 40% NA NA 29.98 M
12:35 pm CDT NW 15.0 G 18.4 10.00 Fair -- 63.0 39.4 43% 61 NA 29.98 M
11:55 am CDT W 11.5 10.00 Fair -- 60.0 40.8 50% 58 NA 29.96 M
10:55 am CDT SW 17.3 G 20.7 10.00 Fair -- 56.0 40.5 56% 52 NA 29.95 M
9:55 am CDT SW 15.0 G 21.9 10.00 Fair -- 53.0 39.2 61% 48 NA 29.95 M
8:55 am CDT S 12.7 G 19.6 10.00 Fair -- 49.0 39.4 70% 44 NA 29.90 M
7:55 am CDT S 10.4 G 17.3 10.00 Fair -- 47.0 39.6 76% 42 NA 29.90 M
6:55 am CDT S 10.4 G 16.1 10.00 Fair -- 48.0 40.1 74% 43 NA 29.90 M
5:55 am CDT S 12.7 10.00 Fair -- 46.0 39.7 78% 40 NA 29.90 M
4:55 am CDT S 6.9 10.00 Fair -- 47.0 39.4 76% 44 NA 29.93 M
3:55 am CDT S 10.4 G 17.3 10.00 Fair -- 49.0 40.5 71% 45 NA 29.94 M
2:55 am CDT S 12.7 G 20.7 10.00 Fair -- 51.0 41.0 68% 46 NA 29.96 M
1:55 am CDT S 10.4 10.00 Fair -- 51.0 41.0 69% 47 NA 29.99 M
12:55 am CDT S 8.1 10.00 Fair -- 50.0 40.1 70% 47 NA 30.00 M
11:55 pm CDT S 9.2 10.00 Fair -- 51.0 39.6 66% 48 NA 30.02 M
10:55 pm CDT S 9.2 10.00 Fair -- 54.0 39.7 60% 51 NA 30.03 M
9:55 pm CDT S 9.2 10.00 Fair -- 54.0 38.7 57% 51 NA 30.03 M
8:55 pm CDT SE 8.1 10.00 Fair -- 49.0 36.0 60% 46 NA 30.05 M
7:55 pm CDT SE 5.8 10.00 Fair -- 49.0 34.0 55% 47 NA 30.06 M
7:35 pm CDT N 0.0 10.00 Fair -- 53.0 35.6 52% NA NA 30.06 M
6:55 pm CDT SE 5.8 10.00 Fair -- 56.0 34.9 46% 55 NA 30.06 M
5:55 pm CDT SE 5.8 10.00 Fair -- 66.0 35.6 33% NA NA 30.07 M
4:55 pm CDT SE 6.9 10.00 Fair -- 69.0 35.1 29% NA NA 30.08 M

Regional Weather Observation


York, York Municipal Airport, NE (KJYR)

Fair and Breezy
66.0 F

Aurora, Aurora Municipal Airport, NE (KAUH)

Fair and Breezy
67.0 F

Hastings, Hastings Municipal Airport, NE (KHSI)

Fair and Windy
66.0 F

Grand Island, Central Nebraska Regional Airport, NE (KGRI)

Fair and Windy
67.0 F

Concordia, Blosser Municipal Airport, KS (KCNK)

Fair
68.0 F

Beatrice Municipal, NE (KBIE)

Fair
65.0 F